Regional Weather Roundup
Issued by NWS Pendleton, OR

Home | Current Version | Previous Version | Text Only | Print | Product List | Glossary On
Versions: 1 2 3 4 5 6 7 8 9 10 11 12 13 14 15 16 17 18 19 20 21 22 23 24 25 26 27 28 29 30 31 32 33 34 35 36 37 38 39 40 41 42 43 44 45 46 47 48 49 50
000
ASUS46 KPDT 291510
RWRPDT
PENDLETON REGIONAL WEATHER ROUNDUP
NATIONAL WEATHER SERVICE PENDLETON OREGON
800 AM PDT FRI MAY 29 2015

NOTE: FAIR INDICATES FEW OR NO CLOUDS BELOW 12,000 FEET WITH NO
SIGNIFICANT WEATHER AND/OR OBSTRUCTIONS TO VISIBILITY.

# INDICATES UNOFFICIAL STATION AND DATA

WAZ520-291610-
EAST SLOPES OF WASHINGTON CASCADES

CITY            SKY/WX      TMP DP  RH  WIND    PRES   REMARKS
#BULLFROG 2SW   N/A         60  54  81  N3      27.64S
#BUMPING DAM    N/A         50  N/A N/A CALM    N/A
#CLE ELUM HS    N/A         56  52  86  CALM    29.97S
#CLE ELUM LAKE  N/A         57  51  80  CALM    29.91R
#CLIFFDEL 2NW   N/A         50  49  96  CALM    N/A
#EASTON DOT     N/A         55  44  66  CALM    N/A
#GLENWOOD       N/A         55  54  96  CALM    29.93S
#NELSON         N/A         54  52  93  CALM    29.96S
#NELSON 3SW     N/A         56  51  83  CALM    30.12S
#NILE           N/A         56  53  90  W2      29.25F
#PEOH POINT     N/A         61  48  62  E5      N/A
#RONALD 2NW     N/A         57   1  10  CALM    29.91S
#SNOWDEN        N/A         63  44  50  CALM    N/A
#TEANAWAY 4NE   N/A         56  54  93  CALM    N/A
#TROUT LAKE 1NE N/A         60  53  78  CALM    29.92F
$$

WAZ521-291610-
SIMCOE HIGHLANDS

CITY            SKY/WX      TMP DP  RH  WIND    PRES   REMARKS
#BICKLETON HS   N/A         66  43  43  CALM    N/A
#SATUS PASS DOT N/A         62  43  50  CALM    N/A
#CENTERVILLE 4W N/A         66  52  61  N1      29.74S
#GOLDENDALE     N/A         59  46  62  SE3     N/A
#GOLDENDALE 5WNWN/A         64  50  60  CALM    29.90S
#GOODNOE HILLS  N/A         74  53  48  SW3     N/A
#LYLE 6NE       N/A         62  52  70  CALM    29.88S
$$

WAZ026-291610-
KITTITAS VALLEY

CITY            SKY/WX      TMP DP  RH  WIND    PRES   REMARKS
ELLENSBURG AP   PTCLDY      66  54  65  CALM    30.02S
YTC-OPS AREA    N/A         63  50  62  N8      30.02S
#ELLENSBURG CWU N/A         62  54  75  CALM    29.90S
#ELLENSBURG 3NE N/A         61  56  84  CALM    30.01S
#ELLENSBURG 1E  N/A         58  53  83  CALM    N/A
#KITTITAS 3S    N/A         58  55  90  CALM    29.93F
#THORP 6N       N/A         61  53  75  CALM    29.94F
$$

WAZ027-291610-
YAKIMA VALLEY

CITY            SKY/WX      TMP DP  RH  WIND    PRES   REMARKS
SUNNYSIDE AP    MOCLDY      65  53  65  SE3     29.97R
YAKIMA AIRPORT  PTCLDY      69  54  59  W6      29.99S
#DONALD 2NE     N/A         74  48  40  CALM    28.82S
#GRANDVIEW      N/A         68  54  61  CALM    29.95S
#MABTON         N/A         68  57  68  CALM    29.96S
#NACHES 2SW     N/A         63  56  78  W6      30.01S
#TERRACE HTS    N/A         61  56  84  CALM    29.89S
#TOPPENISH      N/A         66  56  70  NW2     29.85S
#WAPATO 4NE     N/A         74  48  40  CALM    28.82S
#WEST VALLEY    N/A         63  54  72  CALM    29.92S
#W YAKIMA       N/A         66  55  68  N3      29.92F
#WHITE SWAN 5E  N/A         66  57  73  CALM    29.93S
#WILEY CITY 3W  N/A         70  50  49  CALM    29.96S
$$

WAZ028-291610-
LOWER COLUMBIA BASIN...WASHINGTON

CITY            SKY/WX      TMP DP  RH  WIND    PRES   REMARKS
PASCO           PTCLDY      65  55  70  CALM    29.98S
RICHLAND AWOS   PTCLDY      70  55  59  N7      29.98S
#BASIN CITY 5SW N/A         64  57  78  NE6     29.97S
#BENTON CITY    N/A         68  54  61  CALM    29.85S
#CONNELL 5N     N/A         67  53  61  NE5     29.93S
#CONNELL 5NW    N/A         66  53  63  CALM    29.90S
#ELTOPIA        N/A         66  56  70  CALM    29.91S
#ELTOPIA 6NW    N/A         64  54  70  N8      28.95S
#KAHLOTUS       N/A         63  53  70  S14     29.93S
#KENNEWICK      N/A         60  54  81  N3      27.64S
#KENNEWICK 3S   N/A         62  54  75  CALM    29.95S
#PATERSON       N/A         64  56  75  CALM    29.93S
#PROSSER DOT    N/A         65  55  70  E1      N/A
#PROSSER        N/A         67  52  59  SW1     29.93S
#SAGEMOOR 2W    N/A         63  56  78  CALM    29.80R
#TOUCHET 2S     N/A         58  56  93  CALM    29.93S
#WEST PASCO     N/A         67  56  68  NW1     29.98R
$$

WAZ029-291610-
FOOTHILLS OF THE BLUES...WASHINGTON

CITY            SKY/WX      TMP DP  RH  WIND    PRES   REMARKS
WALLA WALLA AP  PTCLDY      69  51  53  SW5     29.98R
#DAYTON SCHOOL  N/A         69  50  51  N1      30.00S
#LOWDEN 2SE     N/A         62  56  81  CALM    29.94R
#PLEASANT VIEW 1N/A         62  53  72  N1      29.96S
#PRESCOTT       N/A         66  56  70  CALM    29.93S
#SUDBURY        N/A         66  N/A N/A CALM    N/A
#WHITMAN COLLEGEN/A         66  54  65  W2      29.98R
#WAITSBURG 8N   N/A         76  30  18  SE3     29.79S
#WALLA WALLA U  N/A         66  54  65  CALM    29.93S
#WHITMAN MISSIONN/A         61  58  90  W1      29.96R
$$

WAZ030-291610-
BLUE MOUNTAINS...WASHINGTON

CITY            SKY/WX      TMP DP  RH  WIND    PRES   REMARKS
#DIXIE 5SE      N/A         71  43  36  CALM    29.97S
$$

ORZ009-041-WAZ024-291610-
COLUMBIA RIVER GORGE

CITY            SKY/WX      TMP DP  RH  WIND    PRES   REMARKS
HOOD RIVER AP   PTCLDY      63  54  72  CALM    29.98S
THE DALLES AP   PTCLDY      68  54  61  NW5     29.95S
#ARLINGTON AIRPON/A         68  50  53  NW1     29.80S
#CELILO DOT     N/A         68  54  61  CALM    N/A
#MARYHILL       N/A         66  53  63  CALM    N/A
#MOSIER 1S      N/A         64  49  58  CALM    29.94F
#MURDOCK        N/A         66  58  75  W13     29.95S

$$

ORZ510-291610-
NORTH CENTRAL OREGON

CITY            SKY/WX      TMP DP  RH  WIND    PRES   REMARKS
#COW CYN RST AREN/A         67  N/A N/A CALM    N/A
#DUFUR 9E       N/A         68  51  55  CALM    29.93S
#GRASS VALLEY 1SN/A         68  50  53  CALM    29.91F
#KENT DOT       N/A         68  43  40  E2      N/A
#MAUPIN SCHOOL  N/A         64  52  65  CALM    29.98S
#MORO SCHOOL    N/A         69  59  70  CALM    30.00R
#SHANIKO 5WSW   N/A         70  41  35  CALM    N/A
#TYGH VALLEY 2NEN/A         63  53  70  CALM    29.91F
#WAPANITIA AIRPON/A         65  52  63  CALM    29.92S
#WASCO DOT      N/A         69  52  55  CALM    N/A
#WASCO 5NE      N/A         69  54  59  CALM    29.91S
$$

ORZ511-291610-
CENTRAL OREGON

CITY            SKY/WX      TMP DP  RH  WIND    PRES   REMARKS
BEND AIRPORT    SUNNY       64  46  52  S5      30.05S
MADRAS AIRPORT  SUNNY       63  50  62  CALM    30.03S
PRINEVILLE AP   SUNNY       63  45  52  E5      30.04S
REDMOND AIRPORT SUNNY       63  46  54  S6      30.03S
#BEND 1SW       N/A         59  50  72  W3      N/A
#BEND-AWBREY    N/A         59  49  69  S3      29.89S
#BEND-KIM LN    N/A         59  50  72  SW2     30.03S
#CROOKED RVR RANN/A         65  50  58  CALM    29.89F
#CULVER         N/A         63  52  67  CALM    29.98S
#LAKE BILLY CHINN/A         62  21  20  CALM    30.08F
#POWELL BUTTE 3EN/A         61  50  67  E3      N/A
#POWELL BUTTE   N/A         71  53  53  N2      29.67S
#PRINEVILLE 3N  N/A         61  51  70  W3      29.88F
#WARM SPRINGS   N/A         66  51  58  CALM    29.97S

$$


ORZ509-291610-
EAST SLOPES OF OREGON CASCADES

CITY            SKY/WX      TMP DP  RH  WIND    PRES   REMARKS
#BLUE BOX PASS  N/A         58   4  11  CALM    N/A
#CAMP SHERMAN   N/A         46  44  93  CALM    29.95F
#LA PINE 4NW    N/A         51  45  80  CALM    29.97F
#SISTERS AIRPOR N/A         60  55  84  CALM    30.17S
#SISTERS ODOT   N/A         62  N/A N/A CALM    N/A
#SISTERS 3N     N/A         58  50  75  CALM    30.04S
#SUNRIVER       N/A         54  49  83  S1      29.82F
#TUMALO 3W      N/A         64  47  54  CALM    29.77S
#WANOGA BUTTE D N/A         60  35  39  W3      N/A

$$

ORZ044-291610-
LOWER COLUMBIA BASIN...OREGON

CITY            SKY/WX      TMP DP  RH  WIND    PRES   REMARKS
HERMISTON       SUNNY       66  52  61  CALM    29.96S
#BOARDMAN SCHOOLN/A         65  56  73  CALM    29.97S
#ECHO 8SW       N/A         66  53  63  N1      29.97S
#IONE SCHOOL    N/A         66  48  52  CALM    29.94S
#IRRIGON 4NW    N/A         65  56  73  E3      N/A
#UMATILLA SCHOOLN/A         67  58  73  CALM    29.96F
#UMATILLA       N/A         65  53  65  CALM    29.87S
$$

ORZ507-291610-
NORTHERN FOOTHILLS OF THE BLUES

CITY            SKY/WX      TMP DP  RH  WIND    PRES   REMARKS
PENDLETON AIRPT SUNNY       68  50  53  E3      29.98S
#ADAMS 3WNW     N/A         69  55  61  CALM    29.92S
#ATHENA         N/A         71  52  51  S1      29.94R
#CAYUSE         N/A         63  54  72  CALM    29.92R
#HELIX SCHOOL   N/A         66  55  68  CALM    29.92S
#HELIX 3N       N/A         68  53  59  SE6     29.96S
#HOLDMAN 6E     N/A         68  51  55  CALM    29.74R
#M-F FERNDALE   N/A         61  57  87  CALM    29.96S
#M-F GROVE ELEM N/A         67  51  56  CALM    29.96S
#M-FREEWATER 5SEN/A         69  56  63  CALM    29.97R
#PENDLETON DNTN N/A         59  50  72  CALM    29.96S
#PDT AQUATIC CTRN/A         63  51  65  CALM    29.98S
#PENDLETON 5NE  N/A         67  57  70  CALM    29.95R
#PDT SUNRIDGE   N/A         63  55  75  CALM    29.99R
#PENDLETON 7NW  N/A         66  53  63  CALM    29.52F
#PILOT ROCK     N/A         71  51  49  CALM    30.00S
#TUTUILLA       N/A         64  54  70  CALM    29.96S
#UMAPINE 2E     N/A         68  57  68  CALM    29.94R
#WESTON SCHOOL  N/A         69  50  51  N1      29.95R

$$

ORZ508-291610-
SOUTHERN FOOTHILLS OF THE BLUES

CITY            SKY/WX      TMP DP  RH  WIND    PRES   REMARKS
#AJAX           N/A         67  44  43  CALM    29.93S
#CONDON SCHOOL  N/A         68  49  51  CALM    29.98S
#CONDON 5W      N/A         67  43  42  E3      30.01S
#FOSSIL SCHOOL  N/A         64  51  63  CALM    29.96F
#HEPPNER EOC    N/A         68  48  49  SE7     29.84F
#HEPPNER 4NE    N/A         72  47  41  CALM    29.90F
#LEXINGTON 2SE  N/A         70  50  49  SE5     29.96S
#RUGGS 5NE      N/A         72  49  44  CALM    30.20S
#RUGGS 2SW      N/A         67  48  50  NE1     29.91F

$$

ORZ502-503-291610-
BLUE MOUNTAINS

CITY            SKY/WX      TMP DP  RH  WIND    PRES   REMARKS
MEACHAM         PTCLDY      63  50  62  CALM    30.08S
#BATTLE MTN DOT N/A         53  52  96  S8      N/A
#HEPPNER 15SE   N/A         62  48  60  W1      29.99S
#LADD CYN SMT   N/A         54  41  61  E10     N/A
#LONG CREEK HS  N/A         57  52  83  CALM    30.03S
#N POWDER DOT   N/A         55  47  74  NW2     N/A
#PIKES PEAK     N/A         68  46  45  S5      27.99S
#TOLLGATE       N/A         63  47  56  SW1     30.04S
#TROY SCHOOL    N/A         62  51  67  CALM    29.86F
#UKIAH          N/A         49  47  93  CALM    30.05S
#WESTON 4E      N/A         66  50  56  SE7     29.86S
$$

ORZ505-291610-
JOHN DAY BASIN

CITY            SKY/WX      TMP DP  RH  WIND    PRES   REMARKS
JOHN DAY        MOCLDY      62  46  56  E5      30.10S
#JOHN DAY KJDY  N/A         61  50  67  N5      29.97F
#DAYVILLE SCHOOLN/A         60  45  58  E1      30.04S
#MITCHELL       N/A         68  50  53  CALM    30.16S
#MONUMENT HS    N/A         59  48  67  CALM    30.05F
#MT. VERNON 5SE N/A         64  47  54  CALM    30.05S
$$

ORZ506-291610-
OCHOCO AND JOHN DAY HIGHLANDS

CITY            SKY/WX      TMP DP  RH  WIND    PRES   REMARKS
#BUCK CREEK DOT N/A         62  62  100 SE10    N/A
#PAULINA SCHOOL N/A         56  45  66  CALM    30.06R
#PINE MTN OBS   N/A         58  37  45  SE3     N/A
#PRAIRIE CITY   N/A         60  51  72  CALM    30.03F
#SENECA         N/A         49  N/A N/A SW1     N/A
#SENECA 9NW     N/A         46  44  93  CALM    30.01S
$$

ORZ049-291610-
GRANDE RONDE VALLEY

CITY            SKY/WX      TMP DP  RH  WIND    PRES   REMARKS
LA GRANDE       PTCLDY      59  43  55  NE6     30.08S
#COVE           N/A         58  53  83  CALM    30.09R
#COVE SCHOOL    N/A         60  52  75  CALM    30.06S
#ELGIN 3N       N/A         59  49  69  CALM    30.06S
#ELGIN 1E       N/A         53  48  83  CALM    N/A
#ISLAND CITY 4N N/A         58  57  96  CALM    29.97S
#LADD CYN DOT   N/A         60  48  64  SE5     N/A
#LA GRANDE ELEM N/A         61  49  65  CALM    30.09S
#UNION 1S       N/A         61  49  65  SE3     29.91S
$$

ORZ050-291610-
WALLOWA COUNTY

CITY            SKY/WX      TMP DP  RH  WIND    PRES   REMARKS
#ENTERPRISE HS  N/A         57  50  77  CALM    30.11S
#IMNAHA SCHOOL  N/A         58  51  77  S1      30.06F
#IMNAHA 10S     N/A         56  47  72  S1      30.07F
#JOSEPH 3N      N/A         55  46  72  CALM    30.12S
#JOSEPH 3W      N/A         64  50  60  S2      29.96S
#LOSTINE        N/A         57  49  75  CALM    29.80S
#MT HOWARD 8000 N/A         48  36  63  SW7     30.27S
#PROMISE 1S     N/A         58  50  75  CALM    30.06F
#SHEEP RDG 7000 N/A         54  37  52  CALM    30.01S
#WALLOWA SCHOOL N/A         55  49  80  CALM    30.91S



$$



USA.gov is the U.S. government's official web portal to all federal, state and local government web resources and services.